Weather in Zlynka

Ukraine / Kirovohrad Region     48°29′27″N   31°32′15″E
temp.,
°C
wind,
m/s
gust,
m/s
humid.,
%
clouds,
%
prec.,
mm/h
press.,
hPa
HPBL,
m
11 may, tue
tue1100:00+8n347497 0.0 102261
03:00+7n4107778 0.0 1022189
06:00+9nnw5136892 0.0 1020370
09:00+11n61370100 0.0 1019456
12:00+18n810575 0.0 10181007
15:00+20nne8105678 0.0 10161657
18:00+16ne51075100 0.1 1016610
21:00+12ene5108923 0.6 1017549
12 may, wed
wed1200:00+11ne488667 0.0 1017418
03:00+6ne410913 0.0 1016247
06:00+5ne39969 0.0 1016352
09:00+10ene796941 0.1 10161304
12:00+12ene775989 0.1 10151604
15:00+12ne5657100 0.3 10141519
18:00+11ne456896 0.1 1013691
21:00+8ne228374 0.2 101333
13 may, thu
thu1300:00+7se118299 0.0 101310
03:00+6sse228642 0.0 101212
06:00+6sse348664 0.0 101268
09:00+12sse456338 0.0 1012715
12:00+14sse4557100 0.1 1012826
15:00+16sse5756100 0.1 10111136
18:00+14sse3584100 0.4 1010145
21:00+13ese3488100 1.0 101063
14 may, fri
fri1400:00+12ese4109297 0.1 1009203
03:00+11sse34932 0.1 100963
06:00+10s23945 0.0 100949
09:00+15ssw357136 0.0 1009480
12:00+19ssw455597 0.0 10091006
15:00+21s5655100 0.1 10091743
18:00+18ssw3672100 0.9 1008424
21:00+15sw228689 1.7 100925
15 may, sat
sat1500:00+13ssw359768 2.4 1009114
03:00+11sw33963 2.4 100953
06:00+11wsw249672 0.0 1010103
09:00+16wnw458038 0.0 1011574
12:00+19w56530 0.0 10121194
15:00+20w67495 0.0 10121571
18:00+20wnw3452100 0.0 10121552
21:00+14n227529 0.0 101320